Location: Unspecified
(0.0000°N, 0.0000°E)
Time: 18:26:58
(UTC+00:00)

deb OV3-4 - Pass Details

Date: 16 April 2026
Orbit: 581 x 4210 km, 40.6° (Epoch: 13 May)

Event Time Altitude Azimuth Distance (km) Brightness Sun altitude
Rises 20:42:45 0° 294° (WNW) 5,598 ? -40.0°
Reaches altitude 10° 20:48:00 10° 282° (WNW) 3,910 ? -41.2°
Enters shadow 20:54:46 23° 235° (SW) 2,186 ? -42.9°
